Wind_Speed
4 3 3 3 3 2 2 1 1 1 1 2 2 2 3 3 4 4 4 4 4 5 4 3 3 2 2 1 1 2 2 2 1 1 2 3 4 4 4 4 4 4 4
4 4 4 3 3 2 2 1 1 1 1 1 2 2 3 3 4 4 4 5 5 5 4 3 3 3 2 2 2 2 3 3 2 2 3 3 4 4 4 4 3 4 4
4 4 4 4 3 3 3 2 1 0 0 1 2 3 3 4 4 4 4 5 5 5 4 3 3 3 3 2 2 2 3 3 3 3 4 4 4 4 3 3 3 3 4
6 5 4 3 3 3 3 2 2 1 1 1 2 3 3 4 4 4 4 5 5 5 4 4 3 3 4 3 3 3 3 3 3 4 4 5 5 4 4 3 4 5 5
6 6 5 4 4 4 3 2 2 2 2 2 2 3 4 4 4 4 4 5 5 4 4 3 4 3 4 4 4 3 3 2 3 4 5 5 4 4 4 4 5 5 6
7 6 5 5 5 4 4 3 2 3 3 3 3 4 4 4 4 4 4 4 4 4 4 3 3 3 4 3 3 3 2 2 4 3 4 4 4 4 4 4 4 5 6
8 7 6 6 5 5 4 3 3 4 3 3 3 3 3 4 4 4 4 4 4 4 4 3 3 3 3 3 2 2 2 2 3 3 3 3 3 3 4 4 4 5 5
8 7 7 6 6 6 5 4 3 4 3 3 2 2 0 3 3 3 3 3 3 4 4 4 4 3 3 3 2 1 1 2 3 2 2 2 3 3 4 4 4 5 5
7 7 7 6 6 6 6 5 4 4 4 2 1 1 1 1 2 2 2 3 3 3 3 3 3 3 3 2 1 1 1 2 3 3 2 3 3 4 4 4 5 5 5
8 7 7 6 6 7 6 6 6 6 5 2 1 2 2 1 0 0 1 2 2 3 3 3 3 3 3 2 2 1 2 2 3 3 3 3 4 4 4 4 5 5 6
8 8 7 7 6 7 7 7 7 5 4 3 2 3 2 1 1 1 1 1 2 2 3 3 3 2 2 2 2 2 3 3 4 4 4 4 4 5 4 5 6 6 7
9 8 8 8 8 7 7 7 7 5 3 3 3 3 3 2 1 1 1 1 1 1 2 4 3 2 1 2 3 3 3 4 4 5 4 5 5 5 5 5 6 6 7
10 9 9 8 8 8 8 8 7 6 4 3 3 3 3 3 3 2 1 2 2 2 3 3 3 2 2 3 3 3 4 4 4 4 5 5 5 6 6 6 6 7 7
10 9 9 9 9 8 8 7 6 5 3 2 2 2 3 3 3 3 2 2 3 3 3 3 2 2 2 3 3 4 4 4 4 5 5 5 6 6 7 7 7 7 8
9 10 10 9 9 9 8 7 7 6 4 3 2 2 3 3 4 3 3 4 3 4 4 3 3 3 4 4 4 5 4 4 6 6 7 6 6 6 7 7 8 8 8
9 9 9 9 9 9 8 8 7 5 5 5 4 4 4 4 4 4 4 4 4 4 3 3 3 3 4 4 5 5 5 5 6 6 7 7 7 7 8 8 8 9 9
9 9 8 9 9 9 9 8 8 6 6 6 6 5 5 5 5 5 5 6 5 5 4 4 4 4 5 5 6 6 6 7 7 8 8 7 7 8 8 9 9 9 10
10 9 8 8 8 8 8 8 8 7 6 6 6 5 5 5 5 5 6 6 6 6 5 4 5 6 6 6 7 7 7 7 8 8 9 8 8 9 9 9 9 9 10
9 9 9 9 9 8 8 8 8 7 6 6 5 5 6 6 5 6 7 7 7 7 7 6 6 7 7 7 8 8 8 8 8 8 8 9 9 10 10 10 9 9 9
9 9 8 8 8 8 8 8 8 7 7 7 6 6 6 6 7 7 7 7 8 7 8 7 7 7 7 7 7 7 8 8 8 8 8 8 9 10 11 10 10 10 9
9 9 8 8 8 8 8 8 8 7 7 7 7 6 6 6 7 7 7 8 8 8 8 7 7 7 8 8 8 8 8 9 9 8 9 8 9 10 10 10 10 10 10
10 10 9 9 8 8 8 9 9 8 8 7 7 7 7 7 7 7 7 7 7 8 8 7 8 8 9 9 9 8 9 10 10 10 9 10 10 11 11 10 10 10 10
10 10 9 8 8 8 9 9 10 9 9 8 8 8 7 7 7 7 7 7 8 8 8 8 8 9 9 10 10 10 10 10 10 10 10 11 11 11 11 11 11 10 10
10 10 9 9 9 9 10 10 10 10 10 9 8 8 8 7 7 8 8 8 8 9 9 9 9 9 10 10 11 11 11 10 10 10 11 12 12 11 11 11 12 11 11
11 10 10 10 10 10 11 11 11 11 10 10 9 9 8 8 8 9 9 9 9 10 10 10 10 10 11 11 11 11 11 11 12 11 12 12 12 12 12 11 11 11 12
12 12 11 11 10 11 11 11 11 11 11 10 10 9 9 9 9 9 10 10 10 10 11 11 11 11 11 12 12 12 12 12 13 12 12 12 12 13 13 12 11 11 11
Wind_Direction
23 18 21 19 10 15 28 75 88 155 193 216 234 246 242 233 225 228 228 221 224 230 233 230 229 248 258 262 267 269 275 290 269 263 243 247 250 251 259 269 265 267 266
21 24 26 26 21 5 358 19 33 102 187 230 247 259 250 243 232 229 231 232 234 232 238 228 227 231 244 266 282 288 297 296 284 284 272 258 255 254 264 272 271 268 264
21 21 22 22 20 10 4 357 337 333 247 241 246 262 251 244 240 234 234 235 237 236 231 218 217 226 239 252 274 287 298 296 280 289 289 273 266 260 266 270 265 273 276
15 17 15 13 9 359 356 360 316 296 330 263 250 260 255 245 242 238 241 241 237 232 222 216 222 233 245 255 270 273 279 285 286 306 302 293 283 275 269 268 272 274 277
18 19 16 6 2 1 5 8 329 327 311 294 278 265 254 244 238 236 239 233 229 229 224 225 231 246 252 258 268 274 269 280 293 312 322 313 295 291 276 273 273 276 280
15 19 13 12 8 14 12 5 347 335 313 292 279 269 248 236 233 233 231 216 219 228 232 229 230 244 249 264 282 288 278 285 300 309 318 317 310 309 300 291 291 290 286
14 17 14 15 16 10 8 10 7 348 313 303 305 299 257 218 216 225 225 221 223 227 233 234 236 245 251 269 280 283 284 301 312 318 330 329 323 322 317 313 303 302 292
13 12 7 12 17 20 10 358 358 352 339 332 338 338 275 178 193 207 216 226 223 224 235 238 238 239 248 271 288 296 329 336 334 307 324 337 337 336 328 316 309 306 298
12 7 8 12 14 16 10 12 10 4 2 351 349 20 73 164 187 195 202 215 221 229 239 243 243 247 257 268 293 307 349 331 342 332 323 323 325 330 325 311 313 309 303
15 15 9 8 9 6 8 15 13 6 14 15 46 79 90 103 50 201 196 211 224 230 236 249 252 260 271 289 290 315 329 326 329 326 326 324 329 328 321 313 319 314 306
16 15 10 8 8 5 7 8 9 11 23 33 66 78 74 78 11 8 340 240 242 242 251 260 270 269 277 290 294 310 308 312 323 319 314 307 318 328 321 316 314 312 308
19 16 15 11 7 7 11 9 13 16 37 54 57 53 55 52 21 2 316 329 301 266 271 279 281 296 291 292 289 304 305 308 319 323 316 316 325 331 325 318 318 318 313
19 18 19 18 16 10 9 9 15 23 46 61 45 35 33 34 27 16 329 321 327 305 290 300 318 336 321 303 299 307 316 325 327 328 328 328 328 326 326 322 319 318 314
17 18 18 17 16 14 13 13 17 23 33 22 23 25 30 24 15 14 3 339 326 313 309 314 323 324 319 323 318 321 330 334 334 336 331 326 326 323 323 321 317 318 313
13 14 14 16 15 15 17 18 16 14 24 18 9 16 19 10 5 8 349 343 348 328 327 327 333 322 324 329 328 326 326 333 336 338 333 325 323 323 323 320 319 318 314
6 12 12 12 12 14 14 14 13 11 15 13 6 4 7 1 358 356 343 349 344 335 337 334 325 320 319 317 322 331 336 332 327 326 324 323 320 316 316 317 316 316 313
5 6 6 8 9 11 14 14 16 14 12 9 4 356 353 350 348 347 340 342 344 341 331 323 317 309 312 313 314 321 326 329 327 326 321 317 314 311 312 314 311 314 311
3 4 5 9 9 10 13 12 13 14 7 1 1 351 341 337 339 342 341 341 346 346 337 322 311 300 302 307 307 311 316 317 318 319 319 317 315 315 314 315 313 313 313
360 1 3 7 9 9 9 9 7 6 359 351 349 342 339 338 334 330 330 332 333 337 335 328 314 308 308 310 307 309 313 312 311 314 315 315 316 317 318 323 320 313 311
357 357 355 355 360 1 359 359 360 358 354 347 343 333 328 330 330 328 325 326 327 332 332 325 320 316 316 314 312 312 312 314 313 312 314 314 313 316 319 322 323 319 317
353 351 346 345 349 351 351 350 350 350 349 345 341 339 331 325 325 327 326 322 325 326 323 320 315 317 318 315 308 308 309 313 315 313 315 313 313 314 316 314 314 313 312
345 343 339 333 338 341 343 343 342 341 341 340 335 335 331 326 326 328 328 324 324 323 321 320 319 318 317 316 312 310 306 309 316 314 313 310 308 309 309 309 309 307 307
339 337 330 330 331 333 334 335 336 334 336 335 334 332 329 323 324 329 331 324 321 319 317 316 318 317 316 315 317 315 310 310 314 319 314 312 308 309 309 307 305 301 303
330 330 323 322 325 328 330 333 335 336 334 333 333 330 326 323 324 325 326 323 319 315 314 315 316 316 316 318 317 315 313 311 308 309 314 311 308 307 306 308 308 306 308
318 320 318 315 317 321 323 326 329 330 329 330 330 326 325 321 321 323 323 320 317 316 316 315 316 315 316 316 317 315 313 310 310 309 307 309 310 310 311 310 312 310 309
314 314 313 313 313 316 317 320 323 325 325 324 323 322 321 321 322 325 324 323 319 317 316 316 318 316 315 313 314 312 311 312 311 310 310 309 311 313 316 315 312 309 309
Height
5879 5878 5877 5877 5877 5877 5877 5876 5876 5876 5876 5876 5876 5876 5876 5877 5877 5878 5878 5879 5880 5880 5881 5882 5882 5882 5883 5883 5883 5884 5884 5884 5884 5884 5884 5884 5884 5885 5885 5885 5886 5886 5886
5879 5879 5878 5878 5878 5877 5877 5877 5876 5876 5876 5876 5876 5876 5876 5877 5877 5878 5878 5879 5879 5880 5881 5882 5882 5883 5883 5883 5883 5883 5884 5884 5884 5884 5884 5884 5884 5884 5885 5885 5885 5885 5885
5880 5879 5879 5878 5878 5878 5877 5877 5877 5877 5876 5876 5876 5876 5876 5877 5877 5877 5878 5878 5879 5880 5880 5881 5882 5882 5883 5883 5883 5883 5883 5883 5884 5884 5884 5883 5883 5884 5884 5884 5884 5884 5884
5880 5880 5879 5879 5878 5878 5878 5877 5877 5876 5876 5876 5876 5876 5876 5876 5876 5877 5877 5878 5879 5879 5880 5881 5882 5882 5882 5883 5883 5883 5883 5883 5883 5883 5883 5883 5883 5883 5883 5883 5883 5883 5883
5881 5880 5880 5879 5879 5878 5878 5877 5877 5876 5876 5876 5876 5875 5875 5875 5876 5877 5877 5878 5878 5879 5880 5881 5881 5881 5882 5882 5882 5882 5883 5883 5883 5883 5882 5883 5882 5882 5882 5882 5882 5882 5882
5882 5881 5880 5880 5879 5878 5878 5877 5877 5876 5875 5875 5875 5874 5874 5874 5875 5876 5877 5877 5878 5879 5880 5880 5881 5881 5881 5882 5882 5882 5882 5882 5882 5882 5882 5882 5882 5882 5881 5881 5881 5881 5881
5883 5882 5881 5880 5879 5879 5878 5877 5877 5876 5875 5874 5874 5873 5871 5873 5875 5876 5877 5877 5878 5879 5880 5880 5880 5881 5881 5881 5882 5882 5881 5881 5881 5881 5881 5881 5881 5881 5881 5880 5880 5880 5880
5884 5883 5882 5881 5880 5879 5879 5878 5877 5876 5875 5874 5873 5872 5870 5872 5875 5876 5877 5877 5878 5879 5879 5880 5880 5880 5881 5881 5881 5881 5881 5881 5881 5880 5880 5880 5880 5880 5880 5880 5879 5879 5879
5885 5884 5882 5882 5881 5880 5879 5878 5877 5876 5875 5874 5874 5874 5874 5875 5876 5876 5877 5877 5878 5879 5879 5880 5880 5880 5880 5880 5881 5881 5881 5880 5880 5880 5880 5879 5879 5879 5879 5879 5878 5878 5877
5885 5884 5883 5882 5882 5881 5880 5878 5877 5876 5874 5874 5874 5875 5876 5876 5877 5877 5877 5877 5878 5879 5879 5880 5880 5880 5880 5880 5880 5880 5880 5880 5880 5880 5879 5879 5878 5878 5878 5878 5877 5877 5876
5886 5885 5884 5883 5882 5881 5880 5878 5876 5875 5874 5875 5875 5876 5877 5877 5877 5878 5878 5878 5878 5879 5879 5879 5880 5880 5880 5880 5880 5880 5880 5880 5879 5879 5879 5878 5878 5877 5877 5877 5876 5876 5875
5887 5886 5885 5884 5883 5882 5880 5879 5876 5874 5874 5876 5877 5877 5878 5878 5878 5878 5878 5879 5879 5879 5879 5879 5879 5879 5879 5879 5879 5879 5879 5879 5879 5878 5878 5877 5877 5876 5876 5875 5875 5875 5874
5889 5887 5886 5885 5884 5883 5881 5880 5878 5876 5876 5877 5878 5878 5879 5879 5879 5879 5879 5879 5879 5879 5879 5879 5879 5879 5879 5879 5879 5879 5878 5878 5878 5877 5877 5876 5876 5875 5875 5874 5874 5873 5872
5890 5889 5887 5886 5885 5884 5882 5881 5880 5880 5879 5879 5879 5879 5879 5879 5879 5879 5879 5879 5879 5879 5879 5879 5879 5879 5879 5879 5878 5878 5878 5877 5877 5876 5876 5875 5874 5874 5873 5873 5872 5871 5871
5891 5890 5889 5887 5886 5885 5884 5882 5882 5881 5881 5881 5880 5880 5880 5880 5880 5880 5880 5880 5879 5879 5879 5879 5879 5879 5878 5878 5878 5877 5877 5877 5876 5875 5875 5874 5873 5872 5872 5871 5870 5870 5869
5892 5891 5890 5889 5887 5886 5885 5884 5883 5882 5882 5882 5881 5881 5881 5881 5881 5880 5880 5880 5879 5879 5878 5879 5879 5878 5878 5878 5877 5877 5876 5876 5875 5875 5874 5873 5872 5871 5870 5870 5869 5868 5867
5893 5891 5890 5889 5888 5887 5886 5885 5884 5883 5883 5882 5882 5882 5881 5881 5881 5881 5880 5880 5879 5878 5878 5878 5878 5878 5877 5877 5877 5876 5876 5875 5874 5873 5873 5872 5871 5870 5869 5868 5867 5866 5865
5893 5892 5891 5890 5889 5888 5887 5886 5885 5884 5883 5883 5882 5882 5881 5881 5881 5881 5880 5880 5879 5878 5877 5877 5877 5877 5876 5876 5876 5875 5875 5874 5873 5872 5871 5870 5869 5868 5867 5866 5865 5864 5863
5894 5893 5892 5891 5890 5889 5888 5887 5886 5885 5884 5883 5882 5882 5881 5881 5881 5880 5880 5879 5878 5877 5877 5876 5876 5875 5875 5875 5874 5874 5873 5872 5871 5870 5870 5868 5867 5866 5865 5864 5864 5863 5862
5895 5894 5893 5892 5891 5889 5888 5887 5886 5885 5884 5883 5882 5882 5881 5881 5880 5880 5879 5878 5877 5876 5876 5875 5875 5874 5874 5873 5873 5872 5872 5871 5870 5869 5868 5867 5866 5865 5864 5863 5862 5861 5860
5895 5894 5893 5892 5891 5890 5889 5887 5886 5885 5884 5883 5882 5881 5881 5880 5880 5879 5878 5877 5877 5876 5875 5874 5874 5873 5873 5872 5871 5871 5870 5869 5868 5867 5867 5866 5864 5863 5862 5861 5860 5859 5858
5895 5893 5892 5891 5890 5889 5888 5887 5886 5885 5884 5883 5882 5881 5880 5880 5879 5878 5877 5877 5876 5875 5874 5873 5873 5872 5871 5870 5869 5869 5868 5868 5866 5865 5864 5863 5862 5861 5860 5859 5858 5857 5856
5894 5893 5892 5891 5890 5889 5888 5887 5886 5884 5883 5882 5881 5880 5879 5879 5878 5877 5876 5876 5875 5874 5872 5872 5871 5870 5870 5869 5867 5867 5866 5865 5864 5863 5862 5861 5860 5859 5858 5857 5856 5855 5854
5893 5892 5891 5890 5889 5888 5887 5886 5885 5883 5882 5881 5880 5879 5878 5877 5877 5876 5875 5874 5873 5872 5871 5870 5869 5869 5868 5867 5866 5865 5864 5863 5862 5861 5860 5859 5858 5857 5856 5854 5853 5852 5851
5892 5891 5890 5889 5888 5887 5886 5885 5884 5883 5881 5880 5879 5878 5877 5877 5876 5875 5874 5873 5872 5870 5869 5868 5868 5867 5866 5865 5864 5863 5861 5860 5859 5859 5858 5857 5856 5854 5853 5852 5851 5850 5849
5890 5889 5888 5888 5887 5886 5885 5884 5883 5881 5880 5879 5878 5877 5876 5875 5875 5874 5873 5871 5870 5869 5868 5867 5866 5865 5864 5863 5862 5861 5860 5858 5857 5856 5855 5855 5854 5852 5850 5849 5849 5848 5846